Weather History for Rockford, IL

Change the Weather History Date:

Wednesday, November 10, 2010

  Actual Average Record
Temperature  
Mean Temperature 59 °F 42 °F  
Max Temperature 70 °F 51 °F 70 °F (2010)
Min Temperature 47 °F 33 °F 15 °F (1957)
Degree Days  
Heating Degree Days 6 23  
Month to date heating degree days 188 210  
Since 1 July heating degree days 565 763  
Cooling Degree Days 0 0  
Month to date cooling degree days 0 0  
Year to date cooling degree days 991 820  
Growing Degree Days 9 (Base 50)    
Moisture  
Dew Point 43 °F    
Average Humidity 55    
Maximum Humidity 71    
Minimum Humidity 39    
Precipitation  
Precipitation 0.00 in 0.08 in 1.61 in (1998)
Month to date precipitation 0.10 0.88  
Year to date precipitation 34.13 32.56  
Snow  
Snow 0.00 in 0.00 in 4.00 in (1947)
Month to date snowfall T 0.1  
Since 1 July snowfall T 0.2  
Since 1 September snowfall T 0.2  
Snow Depth -    
Sea Level Pressure  
Sea Level Pressure 30.06 in    
Wind  
Wind Speed 10 mph (SSE)    
Max Wind Speed 23 mph    
Max Gust Speed 28 mph    
Visibility 10 miles    
Events      
T = Trace of Precipitation, MM = Missing Value Source: NWS Daily Summary

Daily Weather History Graph

Daily Weather History Graph

Search for Another Location

Airport:

Trip Planner

Search our weather history database for the weather conditions in past years. The results will help you decide how hot, cold, wet, or windy it might be!

Date:

Astronomy

Nov. 10, 2010 Rise Set
Actual Time 6:40 AM CST 4:39 PM CST
Civil Twilight 6:10 AM CST 5:09 PM CST
Nautical Twilight 5:37 AM CST 5:42 PM CST
Astronomical Twilight 5:04 AM CST 6:15 PM CST
Moon 11:06 AM CST (11/10) 8:40 PM CST (11/10)
Length of Visible Light 10h 58m
Length of Day
9h 59m
Waxing Crescent, 23% of the Moon is Illuminated
Nov 10
Waxing Crescent
Nov 13
First Quarter
Nov 21
Full
Nov 28
Last Quarter
Dec 5
New

Hourly Weather History & Observations

Time (CST) Temp. Dew Point Humidity Pressure Visibility Wind Dir Wind Speed Gust Speed Precip Events Conditions
12:54 AM 53.1 °F 39.9 °F 61% 30.02 in 10.0 mi Calm Calm - N/A   Clear
1:54 AM 51.1 °F 39.0 °F 63% 30.03 in 10.0 mi SE 5.8 mph - N/A   Clear
2:54 AM 50.0 °F 39.0 °F 66% 30.03 in 10.0 mi SSE 6.9 mph - N/A   Clear
3:54 AM 50.0 °F 39.0 °F 66% 30.04 in 10.0 mi SSE 5.8 mph - N/A   Clear
4:54 AM 48.9 °F 39.0 °F 69% 30.04 in 10.0 mi SSE 6.9 mph - N/A   Clear
5:54 AM 48.0 °F 37.9 °F 68% 30.04 in 10.0 mi SSE 6.9 mph - N/A   Scattered Clouds
6:54 AM 48.0 °F 37.9 °F 68% 30.06 in 10.0 mi SSE 5.8 mph - N/A   Mostly Cloudy
7:54 AM 51.1 °F 39.9 °F 66% 30.05 in 10.0 mi SE 4.6 mph - N/A   Overcast
8:54 AM 54.0 °F 41.0 °F 62% 30.07 in 10.0 mi SSE 8.1 mph - N/A   Overcast
9:54 AM 57.0 °F 41.0 °F 55% 30.07 in 10.0 mi SSE 9.2 mph - N/A   Overcast
10:54 AM 61.0 °F 42.1 °F 50% 30.07 in 10.0 mi SSE 10.4 mph - N/A   Overcast
11:54 AM 64.0 °F 43.0 °F 46% 30.05 in 10.0 mi SE 12.7 mph - N/A   Mostly Cloudy
12:54 PM 68.0 °F 43.0 °F 40% 30.04 in 10.0 mi South 13.8 mph - N/A   Scattered Clouds
1:54 PM 69.1 °F 44.1 °F 40% 30.03 in 10.0 mi South 16.1 mph - N/A   Mostly Cloudy
2:54 PM 70.0 °F 45.0 °F 41% 30.03 in 10.0 mi South 17.3 mph - N/A   Scattered Clouds
3:54 PM 68.0 °F 48.0 °F 49% 30.03 in 10.0 mi South 15.0 mph - N/A   Partly Cloudy
4:54 PM 64.9 °F 48.0 °F 54% 30.06 in 10.0 mi SSE 10.4 mph - N/A   Clear
5:54 PM 63.0 °F 46.9 °F 56% 30.06 in 10.0 mi SSE 11.5 mph - N/A   Clear
6:54 PM 61.0 °F 46.9 °F 60% 30.08 in 10.0 mi SSE 12.7 mph - N/A   Clear
7:54 PM 60.1 °F 46.9 °F 62% 30.09 in 10.0 mi SSE 12.7 mph - N/A   Clear
8:54 PM 60.1 °F 46.0 °F 60% 30.11 in 10.0 mi SSE 16.1 mph - N/A   Clear
9:54 PM 57.9 °F 46.0 °F 65% 30.12 in 10.0 mi SSE 10.4 mph - N/A   Clear
10:54 PM 59.0 °F 45.0 °F 60% 30.12 in 10.0 mi SSE 13.8 mph - N/A   Clear
11:54 PM 57.0 °F 45.0 °F 64% 30.14 in 10.0 mi South 12.7 mph - N/A   Clear